WESTFORD NEEDLES, 628

Orbit data source: Space-Track

WESTFORD NEEDLES, 628 is space debris in LEO originally from a launch on Thu, 09 May 1963 UTC launched from the Air Force Western Test Range (AFWTR). Debris objects in space refer to the collection of defunct objects orbiting the Earth. Examples of debris include non-operational satellites, rocket bodies, and fragments generated from explosions, collisions, or faulty payload assembly.

Loading next visibility...
Identifier
628, 1963-014F
Orbit
LEO
Country
Flag of USUS
Related business
Manufacturer
Unknown
Mission
Spacecraft
Bus & Motor
Unknown
Mass
~10 kg wet, ~10 kg dry
Launch date (UTC)
1963-05-09 (62 years ago)
Launch vehicle
Unknown
Launch site
Air Force Western Test Range (AFWTR)
Object type
Payload
Rocket body
Debris
Shape & HBR
Box, 0.8 m
Radar Cross Section
1.575 m², Medium (>0.1 m² and < 1m²)

Expand to show TLE details & history
Last TLE update: 2 days ago

TLE from 2 days ago
0 WESTFORD NEEDLES
1 00628U 63014F   25259.33900248  .00000003  00000-0  00000-0 0  9995
2 00628  87.3242 229.1320 0018221  31.0525 329.1402  8.63372316965328
Epoch: 2025-09-16T08:08Z
TLE epoch observation values (Epoch: 2025-09-16T08:08:09.814Z)
Latitude
0.00001°
Longitude
111.56038°
Altitude
3,645.335 km
Speed
6.312 km/s
True Right ascension
15h 16m 31s
True Declination
0° 00' 00"
Sunlit
Object was in daylight at epoch
Visualization orbit readout
Latitude
Unknown
Longitude
Unknown
Altitude
Unknown
Speed
Unknown
Apparent Right ascension
Unknown
Apparent Declination
Unknown
Sunlit
N/A
Visualization observer readout
Local Sidereal Time
23:29:59
Azimuth
Unknown
Elevation
Unknown
Doppler factor
Unknown
Orbital elements
Apogee altitude
3,674.955 km
Perigee altitude
3,638.386 km
Semi-major axis
10,034.808 km
Eccentricity
0.00182
Inclination
87.3242°
RAAN
229.132°
Arg. of periapsis
31.0525°
True anomaly
329.03289°
Mean anomaly
329.1402°
Eccentric anomaly
329.08657°
Mean motion
2.15913 °/min
Orbital period
166.73 mins
BSTAR
0
Loading maneuver chart data...
Computing Atmospheric mass density...

Documentation

Showing up to 5 results
|